TimeEDT,TemperatureF,Dew PointF,Humidity,Sea Level PressureIn,VisibilityMPH,Wind Direction,Wind SpeedMPH,Gust SpeedMPH,PrecipitationIn,Events,Conditions,WindDirDegrees,DateUTC
12:51 AM,45.0,43.0,93,30.05,10.0,Calm,Calm,-,N/A,,Clear,0,2013-10-01 04:51:00
1:51 AM,42.1,41.0,96,30.05,5.0,Calm,Calm,-,N/A,,Scattered Clouds,0,2013-10-01 05:51:00
1:54 AM,42.8,42.8,100,30.04,2.5,Calm,Calm,-,N/A,,Mostly Cloudy,0,2013-10-01 05:54:00
1:58 AM,42.8,42.8,100,30.04,1.2,Calm,Calm,-,N/A,,Mostly Cloudy,0,2013-10-01 05:58:00
2:03 AM,44.6,42.8,93,30.04,0.8,Calm,Calm,-,N/A,,Mist,0,2013-10-01 06:03:00
2:15 AM,42.8,42.8,100,30.03,1.2,Calm,Calm,-,0.01,,Mostly Cloudy,0,2013-10-01 06:15:00
2:18 AM,42.8,41.0,93,30.03,2.0,Calm,Calm,-,0.01,,Mostly Cloudy,0,2013-10-01 06:18:00
2:22 AM,42.8,41.0,93,30.03,1.2,Calm,Calm,-,0.01,,Mostly Cloudy,0,2013-10-01 06:22:00
2:24 AM,41.0,39.2,93,30.03,1.5,Calm,Calm,-,0.01,,Scattered Clouds,0,2013-10-01 06:24:00
2:30 AM,42.8,42.8,100,30.03,3.0,South,3.5,-,0.01,,Partly Cloudy,170,2013-10-01 06:30:00
2:51 AM,42.1,41.0,96,30.04,10.0,Calm,Calm,-,0.01,,Clear,0,2013-10-01 06:51:00
2:58 AM,42.8,41.0,93,30.03,2.5,Calm,Calm,-,N/A,,Scattered Clouds,0,2013-10-01 06:58:00
3:00 AM,42.8,41.0,93,30.03,1.2,Calm,Calm,-,N/A,,Scattered Clouds,0,2013-10-01 07:00:00
3:02 AM,42.8,41.0,93,30.02,0.8,Calm,Calm,-,N/A,,Mist,0,2013-10-01 07:02:00
3:34 AM,42.8,41.0,93,30.02,1.2,Calm,Calm,-,N/A,,Overcast,0,2013-10-01 07:34:00
3:46 AM,41.0,41.0,100,30.03,0.8,Calm,Calm,-,N/A,,Overcast,0,2013-10-01 07:46:00
4:51 AM,41.0,41.0,100,30.04,0.5,Calm,Calm,-,N/A,Fog,Fog,0,2013-10-01 08:51:00
4:54 AM,41.0,41.0,100,30.03,1.2,Calm,Calm,-,N/A,,Overcast,0,2013-10-01 08:54:00
4:56 AM,41.0,41.0,100,30.03,2.5,Calm,Calm,-,N/A,,Overcast,0,2013-10-01 08:56:00
5:02 AM,41.0,41.0,100,30.03,1.0,Calm,Calm,-,N/A,,Mist,0,2013-10-01 09:02:00
5:09 AM,41.0,41.0,100,30.03,0.2,Calm,Calm,-,N/A,Fog,Fog,0,2013-10-01 09:09:00
5:19 AM,41.0,39.2,93,30.03,1.8,Calm,Calm,-,N/A,,Mostly Cloudy,0,2013-10-01 09:19:00
5:21 AM,41.0,39.2,93,30.03,4.0,Calm,Calm,-,N/A,,Mostly Cloudy,0,2013-10-01 09:21:00
5:34 AM,41.0,39.2,93,30.03,8.0,Calm,Calm,-,N/A,,Scattered Clouds,0,2013-10-01 09:34:00
5:47 AM,39.2,39.2,100,30.03,5.0,Calm,Calm,-,N/A,,Mostly Cloudy,0,2013-10-01 09:47:00
5:51 AM,39.9,39.0,97,30.05,1.8,Calm,Calm,-,N/A,,Mostly Cloudy,0,2013-10-01 09:51:00
5:53 AM,39.2,39.2,100,30.03,0.8,Calm,Calm,-,N/A,,Mist,0,2013-10-01 09:53:00
6:51 AM,42.1,41.0,96,30.07,0.2,Calm,Calm,-,N/A,Fog,Fog,0,2013-10-01 10:51:00
7:51 AM,42.1,42.1,100,30.08,0.2,Calm,Calm,-,N/A,Fog,Fog,0,2013-10-01 11:51:00
8:21 AM,42.8,42.8,100,30.05,1.2,Calm,Calm,-,N/A,,Overcast,0,2013-10-01 12:21:00
8:23 AM,42.8,42.8,100,30.05,2.5,Calm,Calm,-,N/A,,Overcast,0,2013-10-01 12:23:00
8:30 AM,42.8,42.8,100,30.05,6.0,Calm,Calm,-,N/A,,Overcast,0,2013-10-01 12:30:00
8:33 AM,42.8,42.8,100,30.05,1.2,Calm,Calm,-,N/A,,Overcast,0,2013-10-01 12:33:00
8:35 AM,42.8,42.8,100,30.05,0.8,Calm,Calm,-,N/A,,Overcast,0,2013-10-01 12:35:00
8:51 AM,44.1,44.1,100,30.08,0.2,Calm,Calm,-,N/A,Fog,Fog,0,2013-10-01 12:51:00
9:49 AM,48.2,48.2,100,30.04,1.8,Calm,Calm,-,N/A,,Mostly Cloudy,0,2013-10-01 13:49:00
9:51 AM,48.9,48.0,97,30.06,6.0,Calm,Calm,-,N/A,,Mostly Cloudy,0,2013-10-01 13:51:00
10:02 AM,48.2,48.2,100,30.04,10.0,Calm,Calm,-,N/A,,Scattered Clouds,0,2013-10-01 14:02:00
10:51 AM,53.1,51.1,93,30.04,10.0,Calm,Calm,-,N/A,,Partly Cloudy,0,2013-10-01 14:51:00
11:51 AM,64.9,51.1,61,30.02,10.0,Variable,4.6,-,N/A,,Clear,0,2013-10-01 15:51:00
12:51 PM,68.0,48.9,50,29.99,10.0,Variable,4.6,-,N/A,,Clear,0,2013-10-01 16:51:00
1:51 PM,69.1,51.1,53,29.98,10.0,NW,3.5,-,N/A,,Mostly Cloudy,320,2013-10-01 17:51:00
2:51 PM,71.1,53.1,53,29.96,10.0,NW,9.2,16.1,N/A,,Clear,310,2013-10-01 18:51:00
3:51 PM,71.1,54.0,55,29.94,10.0,NW,6.9,-,N/A,,Clear,310,2013-10-01 19:51:00
4:51 PM,71.1,54.0,55,29.94,10.0,North,6.9,-,N/A,,Clear,350,2013-10-01 20:51:00
5:51 PM,68.0,55.0,63,29.94,10.0,WNW,4.6,-,N/A,,Clear,290,2013-10-01 21:51:00
6:51 PM,57.9,53.1,84,29.96,10.0,WSW,3.5,-,N/A,,Clear,240,2013-10-01 22:51:00
7:51 PM,55.9,52.0,87,29.96,10.0,Calm,Calm,-,N/A,,Clear,0,2013-10-01 23:51:00
8:51 PM,55.0,52.0,89,29.97,10.0,Calm,Calm,-,N/A,,Clear,0,2013-10-02 00:51:00
9:51 PM,54.0,53.1,97,29.97,9.0,Calm,Calm,-,N/A,,Partly Cloudy,0,2013-10-02 01:51:00
10:51 PM,52.0,51.1,97,29.96,6.0,Calm,Calm,-,N/A,,Clear,0,2013-10-02 02:51:00
11:38 PM,51.8,51.8,100,29.94,1.5,South,3.5,-,N/A,,Clear,170,2013-10-02 03:38:00
11:41 PM,50.0,50.0,100,29.94,0.8,South,3.5,-,N/A,,Clear,180,2013-10-02 03:41:00
11:51 PM,50.0,48.9,96,29.95,1.0,South,3.5,-,N/A,,Clear,190,2013-10-02 03:51:00
11:54 PM,50.0,50.0,100,29.94,2.0,Calm,Calm,-,N/A,,Clear,0,2013-10-02 03:54:00